36.52977, -87.35945

Hourly Observations for October 11, 2018

Temp ( °F °C ) Dew Point ( °F °C ) Humidity (%) Winds ( mph kmh ) Pressure ( in mb ) Visibility ( mi km ) Precip ( " mm )
12:52 am 00:52 Mostly Clear 52 11.1 41 5 66 66 SSW 8 13 29.77 1008 10 16.09344 0 0
1:52 am 01:52 Clear 52 11.1 42 5.6 69 69 SSW 10 17 29.77 1008 10 16.09344 0 0
2:52 am 02:52 Clear 51 10.6 42 5.6 71 71 WSW 7 11 29.77 1008 10 16.09344 0 0
3:52 am 03:52 Clear 50 10 42 5.6 74 74 WSW 6 9 29.77 1008 10 16.09344 0 0
4:30 am 04:30 Mostly Cloudy 49 9.4 42 5.6 77 77 W 5 7 29.8 1009 10 16.09344 0 0
4:52 am 04:52 Cloudy 49 9.4 43 6.1 80 80 W 5 7 29.8 1009 10 16.09344 0 0
5:52 am 05:52 Cloudy 47 8.3 39 3.9 74 74 NNW 13 20 29.83 1010 10 16.09344 0 0
6:52 am 06:52 Cloudy 42 5.6 34 1.1 73 73 NW 10 17 29.85 1011 10 16.09344 0 0
7:52 am 07:52 Mostly Cloudy 40 4.4 33 0.6 77 77 NNW 7 11 29.88 1012 7 11.265408 0 0
8:52 am 08:52 Mostly Cloudy 39 3.9 31 -0.6 73 73 NNW 7 11 29.91 1013 7 11.265408 0 0
9:14 am 09:14 Mostly Cloudy 39 3.9 31 -0.6 73 73 NNW 8 13 29.94 1014 7 11.265408 0 0
9:52 am 09:52 Mostly Cloudy 39 3.9 31 -0.6 73 73 N 7 11 29.91 1013 8 12.874752 0 0
10:52 am 10:52 Mostly Cloudy 39 3.9 30 -1.1 70 70 WNW 8 13 29.94 1014 9 14.484096 0 0
11:52 am 11:52 Cloudy 39 3.9 29 -1.7 67 67 NNW 7 11 29.94 1014 10 16.09344 0 0
12:52 pm 12:52 Cloudy 39 3.9 30 -1.1 70 70 N 10 17 29.91 1013 9 14.484096 0 0
1:52 pm 13:52 Cloudy with Light Rain 39 3.9 30 -1.1 70 70 VRB 5 7 29.91 1013 10 16.09344 0.001 0.001
2:52 pm 14:52 Cloudy 39 3.9 31 -0.6 73 73 NNE 5 7 29.91 1013 10 16.09344 0.001 0.001
3:52 pm 15:52 Cloudy with Light Rain 37 2.8 30 -1.1 76 76 N 8 13 29.91 1013 7 11.265408 0.02 0.508
4:52 pm 16:52 Cloudy with Light Rain 35 1.7 28 -2.2 76 76 NNE 10 17 29.88 1012 9 14.484096 0.02 0.508
5:52 pm 17:52 Cloudy with Light Rain 34 1.1 29 -1.7 82 82 NNE 7 11 29.91 1013 8 12.874752 0.02 0.508
6:52 pm 18:52 Cloudy with Light Rain 34 1.1 29 -1.7 82 82 E 6 9 29.88 1012 7 11.265408 0.08 2.032
7:52 pm 19:52 Cloudy with Light Rain 33 0.6 30 -1.1 89 89 ENE 3 6 29.88 1012 4 6.437376 0.1 2.54
8:17 pm 20:17 Cloudy with Light Rain 34 1.1 30 -1.1 85 85 ENE 5 7 29.91 1013 4 6.437376 0.01 0.254
8:35 pm 20:35 Cloudy with Light Rain 34 1.1 30 -1.1 85 85 NE 7 11 29.91 1013 4 6.437376 0.02 0.508
8:52 pm 20:52 Cloudy with Light Rain 34 1.1 30 -1.1 85 85 NNE 6 9 29.88 1012 4 6.437376 0.03 0.762
9:31 pm 21:31 Cloudy with Rain 33 0.6 30 -1.1 89 89 NE 8 13 29.94 1014 2 3.218688 0.09 2.286
9:50 pm 21:50 Cloudy with Rain 34 1 30 -1 87 87 N 7 11 29.94 1014 3 4.828032 0.13 3.302
9:52 pm 21:52 Cloudy with Light Rain 33 0.6 30 -1.1 89 89 NNE 9 15 29.88 1012 3 4.828032 0.14 3.556
10:24 pm 22:24 Cloudy with Light Rain 34 1.1 31 -0.6 89 89 N 6 9 29.91 1013 5 8.04672 0.03 0.762
10:31 pm 22:31 Cloudy with Light Wintry Mix 34 1.1 31 -0.6 89 89 N 8 13 29.94 1014 6 9.656064 0.03 0.762
10:52 pm 22:52 Cloudy with Rain 33 0.6 30 -1.1 89 89 N 9 15 29.88 1012 3 4.828032 0.09 2.286
11:52 pm 23:52 Cloudy with Light Rain 33 0.6 30 -1.1 89 89 N 8 13 29.91 1013 6 9.656064 0.1 2.54

Powered by AerisWeather